User: anonymous   Login
Location: Caltech
(34.1382°N, 118.1253°W)
Time: 13:34:48
(UTC-07:00)
Language:

ASTRO E2 - Orbit

View from above orbital plane
View from above orbital plane
View from above satellite
View from above satellite

Ground track
Ground track

The orbit data is extracted from the following two-line orbital elements,

1 28773U 05025A   17142.31343143 +.00001207 +00000-0 +57294-4 0  9997
2 28773 031.3824 104.2113 0004612 088.5526 271.5649 15.15763170653441
Epoch (UTC): 22 May 2017 07:31:20
Eccentricity: 0.0004612
inclination: 31.3824°
perigee height: 515 km
apogee height: 522 km
right ascension of ascending node: 104.2113°
argument of perigee: 88.5526°
revolutions per day: 15.15763170
mean anomaly at epoch: 271.5649°
orbit number at epoch: 65344

The dashed part of the orbit path shows where the satellite is in the earth's shadow,  

DLR